Year,Month,Day,Hour,Minute,Value (Times are PST for temperature in C)
2014,05,25,10,32,12.00
2014,05,25,10,33,12.00
2014,05,25,10,34,12.10
2014,05,25,10,35,12.20
2014,05,25,10,36,12.20
2014,05,25,10,37,12.30
2014,05,25,10,38,12.40
2014,05,25,10,39,12.50
2014,05,25,10,40,12.50
2014,05,25,10,41,12.50
2014,05,25,10,42,12.50
2014,05,25,10,43,12.60
2014,05,25,10,44,12.60
2014,05,25,10,45,12.70
2014,05,25,10,46,12.80
2014,05,25,10,47,12.90
2014,05,25,10,48,12.90
2014,05,25,10,49,13.00
2014,05,25,10,50,13.00
2014,05,25,10,51,12.90
2014,05,25,10,52,12.90
2014,05,25,10,53,13.00
2014,05,25,10,54,13.00
2014,05,25,10,55,12.90
2014,05,25,10,56,12.90
2014,05,25,10,57,12.80
2014,05,25,10,58,12.80
2014,05,25,10,59,12.70
2014,05,25,11,00,12.70
2014,05,25,11,01,12.70
2014,05,25,11,02,12.70
2014,05,25,11,03,12.70
2014,05,25,11,04,12.70
2014,05,25,11,05,12.70
2014,05,25,11,06,12.60
2014,05,25,11,07,12.60
2014,05,25,11,08,12.50
2014,05,25,11,09,12.50
2014,05,25,11,10,12.50
2014,05,25,11,11,12.50
2014,05,25,11,12,12.50
2014,05,25,11,13,12.50
2014,05,25,11,14,12.40
2014,05,25,11,15,12.40
2014,05,25,11,16,12.40
2014,05,25,11,17,12.30
2014,05,25,11,18,12.30
2014,05,25,11,19,12.30
2014,05,25,11,20,12.20
2014,05,25,11,21,12.10
2014,05,25,11,22,12.00
2014,05,25,11,23,12.00
2014,05,25,11,24,11.90
2014,05,25,11,25,11.90
2014,05,25,11,26,11.90
2014,05,25,11,27,11.90
2014,05,25,11,28,11.90
2014,05,25,11,29,12.00
2014,05,25,11,30,12.00
2014,05,25,11,31,12.00
2014,05,25,11,32,12.10
2014,05,25,11,33,12.10
2014,05,25,11,34,12.10
2014,05,25,11,35,12.10
2014,05,25,11,36,12.10
2014,05,25,11,37,12.20
2014,05,25,11,38,12.10
2014,05,25,11,39,12.10
2014,05,25,11,40,12.10
2014,05,25,11,41,12.10
2014,05,25,11,42,12.10
2014,05,25,11,43,12.00
2014,05,25,11,44,12.00
2014,05,25,11,45,12.00
2014,05,25,11,46,12.00
2014,05,25,11,47,12.00
2014,05,25,11,48,12.00
2014,05,25,11,49,12.00
2014,05,25,11,50,12.00
2014,05,25,11,51,12.10
2014,05,25,11,52,12.10
2014,05,25,11,53,12.10
2014,05,25,11,54,12.10
2014,05,25,11,55,12.20
2014,05,25,11,56,12.20
2014,05,25,11,57,12.20
2014,05,25,11,58,12.20
2014,05,25,11,59,12.20
2014,05,25,12,00,12.20
2014,05,25,12,01,12.20
2014,05,25,12,02,12.20
2014,05,25,12,03,12.20
2014,05,25,12,04,12.20
2014,05,25,12,05,12.20
2014,05,25,12,06,12.20
2014,05,25,12,07,12.10
2014,05,25,12,08,12.10
2014,05,25,12,09,12.10
2014,05,25,12,10,12.10
2014,05,25,12,11,12.10
2014,05,25,12,12,12.00
2014,05,25,12,13,12.10
2014,05,25,12,14,12.10
2014,05,25,12,15,12.10
2014,05,25,12,16,12.10
2014,05,25,12,17,12.20
2014,05,25,12,18,12.20
2014,05,25,12,19,12.20
2014,05,25,12,20,12.20
2014,05,25,12,21,12.20
2014,05,25,12,22,12.20
2014,05,25,12,23,12.20
2014,05,25,12,24,12.20
2014,05,25,12,25,12.20
2014,05,25,12,26,12.10
2014,05,25,12,27,12.10
2014,05,25,12,28,12.10
2014,05,25,12,29,12.10
2014,05,25,12,30,12.10
2014,05,25,12,31,12.10
2014,05,25,12,32,12.10
2014,05,25,12,33,12.10
2014,05,25,12,34,12.10
2014,05,25,12,35,12.10
2014,05,25,12,36,12.10
2014,05,25,12,37,12.10
2014,05,25,12,38,12.00
2014,05,25,12,39,12.00
2014,05,25,12,40,12.00
2014,05,25,12,41,12.00
2014,05,25,12,42,11.90
2014,05,25,12,43,11.90
2014,05,25,12,44,11.90
2014,05,25,12,45,11.90
2014,05,25,12,46,11.90
2014,05,25,12,47,11.90
2014,05,25,12,48,11.90
2014,05,25,12,49,11.90
2014,05,25,12,50,11.90
2014,05,25,12,51,11.90
2014,05,25,12,52,11.90
2014,05,25,12,53,11.90
2014,05,25,12,54,12.00
2014,05,25,12,55,12.00
2014,05,25,12,56,12.00
2014,05,25,12,57,12.00
2014,05,25,12,58,12.10
2014,05,25,12,59,12.10
2014,05,25,13,00,12.20
2014,05,25,13,01,12.20
2014,05,25,13,02,12.30
2014,05,25,13,03,12.30
2014,05,25,13,04,12.30
2014,05,25,13,05,12.30
2014,05,25,13,06,12.20
2014,05,25,13,07,12.30
2014,05,25,13,08,12.30
2014,05,25,13,09,12.30
2014,05,25,13,10,12.30
2014,05,25,13,11,12.30
2014,05,25,13,12,12.30
2014,05,25,13,13,12.30
2014,05,25,13,14,12.30
2014,05,25,13,15,12.30
2014,05,25,13,16,12.20
2014,05,25,13,17,12.20
2014,05,25,13,18,12.20
2014,05,25,13,19,12.20
2014,05,25,13,20,12.20
2014,05,25,13,21,12.20
2014,05,25,13,22,12.20
2014,05,25,13,23,12.20
2014,05,25,13,24,12.20
2014,05,25,13,25,12.20
2014,05,25,13,26,12.20
2014,05,25,13,27,12.20
2014,05,25,13,28,12.20
2014,05,25,13,29,12.20
2014,05,25,13,30,12.30
2014,05,25,13,31,12.30
2014,05,25,13,32,12.30
2014,05,25,13,33,12.30
2014,05,25,13,34,12.30
2014,05,25,13,35,12.30
2014,05,25,13,36,12.40
2014,05,25,13,37,12.40
2014,05,25,13,38,12.50
2014,05,25,13,39,12.60
2014,05,25,13,40,12.60
2014,05,25,13,41,12.60
2014,05,25,13,42,12.60
2014,05,25,13,43,12.60
2014,05,25,13,44,12.60
2014,05,25,13,45,12.60
2014,05,25,13,46,12.60
2014,05,25,13,47,12.60
2014,05,25,13,48,12.60
2014,05,25,13,49,12.70
2014,05,25,13,50,12.60
2014,05,25,13,51,12.60
2014,05,25,13,52,12.50
2014,05,25,13,53,12.50
2014,05,25,13,54,12.50
2014,05,25,13,55,12.50
2014,05,25,13,56,12.40
2014,05,25,13,57,12.40
2014,05,25,13,58,12.40
2014,05,25,13,59,12.40
2014,05,25,14,00,12.40
2014,05,25,14,01,12.40
2014,05,25,14,02,12.40
2014,05,25,14,03,12.30
2014,05,25,14,04,12.30
2014,05,25,14,05,12.30
2014,05,25,14,06,12.30
2014,05,25,14,07,12.30
2014,05,25,14,08,12.30
2014,05,25,14,09,12.30
2014,05,25,14,10,12.30
2014,05,25,14,11,12.40
2014,05,25,14,12,12.50
2014,05,25,14,13,12.50
2014,05,25,14,14,12.50
2014,05,25,14,15,12.60
2014,05,25,14,16,12.60
2014,05,25,14,17,12.60
2014,05,25,14,18,12.60
2014,05,25,14,19,12.60
2014,05,25,14,20,12.70
2014,05,25,14,21,12.70
2014,05,25,14,22,12.80
2014,05,25,14,23,12.80
2014,05,25,14,24,12.80
2014,05,25,14,25,12.80
2014,05,25,14,26,12.80
2014,05,25,14,27,12.80
2014,05,25,14,28,12.80
2014,05,25,14,29,12.70
2014,05,25,14,30,12.70
2014,05,25,14,31,12.70
2014,05,25,14,32,12.70
2014,05,25,14,33,12.70
2014,05,25,14,34,12.80
2014,05,25,14,35,12.80
2014,05,25,14,36,12.80
2014,05,25,14,37,12.80
2014,05,25,14,38,12.80
2014,05,25,14,39,12.80
2014,05,25,14,40,12.80
2014,05,25,14,41,12.80
2014,05,25,14,42,12.80
2014,05,25,14,43,12.80
2014,05,25,14,44,12.80
2014,05,25,14,45,12.80
2014,05,25,14,46,12.80
2014,05,25,14,47,12.80
2014,05,25,14,48,12.70
2014,05,25,14,49,12.70
2014,05,25,14,50,12.70
2014,05,25,14,51,12.70
2014,05,25,14,52,12.70
2014,05,25,14,53,12.70
2014,05,25,14,54,12.70
2014,05,25,14,55,12.60
2014,05,25,14,56,12.60
2014,05,25,14,57,12.60
2014,05,25,14,58,12.50
2014,05,25,14,59,12.50
2014,05,25,15,00,12.50
2014,05,25,15,01,12.50
2014,05,25,15,02,12.40
2014,05,25,15,03,12.40
2014,05,25,15,04,12.40
2014,05,25,15,05,12.40
2014,05,25,15,06,12.40
2014,05,25,15,07,12.30
2014,05,25,15,08,12.30
2014,05,25,15,09,12.30
2014,05,25,15,10,12.30
2014,05,25,15,11,12.40
2014,05,25,15,12,12.50
2014,05,25,15,13,12.50
2014,05,25,15,14,12.50
2014,05,25,15,15,12.50
2014,05,25,15,16,12.50
2014,05,25,15,17,12.50
2014,05,25,15,18,12.40
2014,05,25,15,19,12.40
2014,05,25,15,20,12.40
2014,05,25,15,21,12.40
2014,05,25,15,22,12.50
2014,05,25,15,23,12.50
2014,05,25,15,24,12.50
2014,05,25,15,25,12.50
2014,05,25,15,26,12.50
2014,05,25,15,27,12.40
2014,05,25,15,28,12.40
2014,05,25,15,29,12.30
2014,05,25,15,30,12.30
2014,05,25,15,31,12.20
2014,05,25,15,32,12.20
2014,05,25,15,33,12.10
2014,05,25,15,34,12.00
2014,05,25,15,35,11.90
2014,05,25,15,36,11.90
2014,05,25,15,37,11.90
2014,05,25,15,38,11.80
2014,05,25,15,39,11.80
2014,05,25,15,40,11.80
2014,05,25,15,41,11.80
2014,05,25,15,42,11.90
2014,05,25,15,43,12.00
2014,05,25,15,44,12.00
2014,05,25,15,45,11.90
2014,05,25,15,46,11.90
2014,05,25,15,47,11.90
2014,05,25,15,48,11.80
2014,05,25,15,49,11.80
2014,05,25,15,50,11.80
2014,05,25,15,51,11.80
2014,05,25,15,52,11.70
2014,05,25,15,53,11.70
2014,05,25,15,54,11.70
2014,05,25,15,55,11.80
2014,05,25,15,56,11.80
2014,05,25,15,57,11.70
2014,05,25,15,58,11.80
2014,05,25,15,59,11.80
2014,05,25,16,00,11.70
2014,05,25,16,01,11.70
2014,05,25,16,02,11.70
2014,05,25,16,03,11.70
2014,05,25,16,04,11.70
2014,05,25,16,05,11.70
2014,05,25,16,06,11.80
2014,05,25,16,07,11.80
2014,05,25,16,08,11.80
2014,05,25,16,09,11.80
2014,05,25,16,10,11.80
2014,05,25,16,11,11.80
2014,05,25,16,12,11.80
2014,05,25,16,13,11.90
2014,05,25,16,14,11.90
2014,05,25,16,15,12.00
2014,05,25,16,16,12.00
2014,05,25,16,17,12.00
2014,05,25,16,18,12.00
2014,05,25,16,19,12.00
2014,05,25,16,20,12.00
2014,05,25,16,21,12.00
2014,05,25,16,22,12.00
2014,05,25,16,23,12.00
2014,05,25,16,24,12.00
2014,05,25,16,25,11.90
2014,05,25,16,26,11.90
2014,05,25,16,27,11.90
2014,05,25,16,28,11.80
2014,05,25,16,29,11.80
2014,05,25,16,30,11.80
2014,05,25,16,31,11.80
2014,05,25,16,32,11.80
2014,05,25,16,33,11.80
2014,05,25,16,34,11.90
2014,05,25,16,35,11.90
2014,05,25,16,36,11.90
2014,05,25,16,37,11.90
2014,05,25,16,38,11.90
2014,05,25,16,39,11.90
2014,05,25,16,40,11.90
2014,05,25,16,41,12.00
2014,05,25,16,42,12.00
2014,05,25,16,43,11.90
2014,05,25,16,44,11.90
2014,05,25,16,45,11.90
2014,05,25,16,46,11.90
2014,05,25,16,47,11.90
2014,05,25,16,48,11.90
2014,05,25,16,49,11.90
2014,05,25,16,50,12.00
2014,05,25,16,51,12.00
2014,05,25,16,52,12.00
2014,05,25,16,53,12.10
2014,05,25,16,54,12.10
2014,05,25,16,55,12.10
2014,05,25,16,56,12.10
2014,05,25,16,57,12.00
2014,05,25,16,58,12.00
2014,05,25,16,59,12.00
2014,05,25,17,00,12.00
2014,05,25,17,01,12.00
2014,05,25,17,02,12.00
2014,05,25,17,03,12.00
2014,05,25,17,04,12.00
2014,05,25,17,05,12.00
2014,05,25,17,06,12.10
2014,05,25,17,07,12.10
2014,05,25,17,08,12.10
2014,05,25,17,09,12.10
2014,05,25,17,10,12.10
2014,05,25,17,11,12.10
2014,05,25,17,12,12.10
2014,05,25,17,13,12.10
2014,05,25,17,14,12.10
2014,05,25,17,15,12.10
2014,05,25,17,16,12.10
2014,05,25,17,17,12.20
2014,05,25,17,18,12.20
2014,05,25,17,19,12.20
2014,05,25,17,20,12.20
2014,05,25,17,21,12.20
2014,05,25,17,22,12.20
2014,05,25,17,23,12.10
2014,05,25,17,24,12.10
2014,05,25,17,25,12.10
2014,05,25,17,26,12.10
2014,05,25,17,27,12.10
2014,05,25,17,28,12.10
2014,05,25,17,29,12.20
2014,05,25,17,30,12.20
2014,05,25,17,31,12.20
2014,05,25,17,32,12.20
2014,05,25,17,33,12.20
2014,05,25,17,34,12.20
2014,05,25,17,35,12.20
2014,05,25,17,36,12.20
2014,05,25,17,37,12.20
2014,05,25,17,38,12.20
2014,05,25,17,39,12.20
2014,05,25,17,40,12.20
2014,05,25,17,41,12.30
2014,05,25,17,42,12.30
2014,05,25,17,43,12.30
2014,05,25,17,44,12.30
2014,05,25,17,45,12.30
2014,05,25,17,46,12.30
2014,05,25,17,47,12.30
2014,05,25,17,48,12.30
2014,05,25,17,49,12.30
2014,05,25,17,50,12.30
2014,05,25,17,51,12.40
2014,05,25,17,52,12.40
2014,05,25,17,53,12.40
2014,05,25,17,54,12.40
2014,05,25,17,55,12.40
2014,05,25,17,56,12.40
2014,05,25,17,57,12.40
2014,05,25,17,58,12.40
2014,05,25,17,59,12.40
2014,05,25,18,00,12.40
2014,05,25,18,01,12.40
2014,05,25,18,02,12.40
2014,05,25,18,03,12.30
2014,05,25,18,04,12.30
2014,05,25,18,05,12.30
2014,05,25,18,06,12.30
2014,05,25,18,07,12.30
2014,05,25,18,08,12.30
2014,05,25,18,09,12.30
2014,05,25,18,10,12.30
2014,05,25,18,11,12.30
2014,05,25,18,12,12.30
2014,05,25,18,13,12.30
2014,05,25,18,14,12.30
2014,05,25,18,15,12.30
2014,05,25,18,16,12.30
2014,05,25,18,17,12.30
2014,05,25,18,18,12.30
2014,05,25,18,19,12.30
2014,05,25,18,20,12.30
2014,05,25,18,21,12.40
2014,05,25,18,22,12.40
2014,05,25,18,23,12.40
2014,05,25,18,24,12.40
2014,05,25,18,25,12.30
2014,05,25,18,26,12.30
2014,05,25,18,27,12.30
2014,05,25,18,28,12.30
2014,05,25,18,29,12.30
2014,05,25,18,30,12.30
2014,05,25,18,31,12.30
2014,05,25,18,32,12.30
2014,05,25,18,33,12.30
2014,05,25,18,34,12.30
2014,05,25,18,35,12.30
2014,05,25,18,36,12.20
2014,05,25,18,37,12.20
2014,05,25,18,38,12.10
2014,05,25,18,39,12.10
2014,05,25,18,40,12.10
2014,05,25,18,41,12.10
2014,05,25,18,42,12.10
2014,05,25,18,43,12.10
2014,05,25,18,44,12.00
2014,05,25,18,45,12.00
2014,05,25,18,46,12.00
2014,05,25,18,47,11.90
2014,05,25,18,48,11.90
2014,05,25,18,49,11.90
2014,05,25,18,50,11.80
2014,05,25,18,51,11.80
2014,05,25,18,52,11.80
2014,05,25,18,53,11.80
2014,05,25,18,54,11.80
2014,05,25,18,55,11.80
2014,05,25,18,56,11.80
2014,05,25,18,57,11.80
2014,05,25,18,58,11.80
2014,05,25,18,59,11.80
2014,05,25,19,00,11.80
2014,05,25,19,01,11.80
2014,05,25,19,02,11.70
2014,05,25,19,03,11.70
2014,05,25,19,04,11.70
2014,05,25,19,05,11.70
2014,05,25,19,06,11.70
2014,05,25,19,07,11.60
2014,05,25,19,08,11.60
2014,05,25,19,09,11.60
2014,05,25,19,10,11.60
2014,05,25,19,11,11.60
2014,05,25,19,12,11.60
2014,05,25,19,13,11.60
2014,05,25,19,14,11.70
2014,05,25,19,15,11.70
2014,05,25,19,16,11.70
2014,05,25,19,17,11.70
2014,05,25,19,18,11.70
2014,05,25,19,19,11.70
2014,05,25,19,20,11.70
2014,05,25,19,21,11.70
2014,05,25,19,22,11.70
2014,05,25,19,23,11.80
2014,05,25,19,24,11.80
2014,05,25,19,25,11.80
2014,05,25,19,26,11.80
2014,05,25,19,27,11.80
2014,05,25,19,28,11.80
2014,05,25,19,29,11.80
2014,05,25,19,30,11.80
2014,05,25,19,31,11.80
2014,05,25,19,32,11.70
2014,05,25,19,33,11.70
2014,05,25,19,34,11.70
2014,05,25,19,35,11.70
2014,05,25,19,36,11.70
2014,05,25,19,37,11.70
2014,05,25,19,38,11.70
2014,05,25,19,39,11.70
2014,05,25,19,40,11.70
2014,05,25,19,41,11.70
2014,05,25,19,42,11.70
2014,05,25,19,43,11.70
2014,05,25,19,44,11.70
2014,05,25,19,45,11.70
2014,05,25,19,46,11.70
2014,05,25,19,47,11.70
2014,05,25,19,48,11.70
2014,05,25,19,49,11.70
2014,05,25,19,50,11.70
2014,05,25,19,51,11.70
2014,05,25,19,52,11.70
2014,05,25,19,53,11.70
2014,05,25,19,54,11.70
